User: anonymous   Login
Location: Peebles
(55.6412°N, 3.1714°W)
Time: 08:33:56
(UTC+01:00)
Language:

IRIDIUM 33 DEB - Orbit

View from above orbital plane
View from above orbital plane
View from above satellite
View from above satellite

Ground track
Ground track

The orbit data is extracted from the following two-line orbital elements,

1 33879U 97051AY  22176.85809067  .00014214  00000-0  16345-2 0  9996
2 33879  86.3592 138.5517 0044433 118.8435 241.7260 14.84966739460237
Epoch (UTC): 25 June 2022 20:35:39
Eccentricity: 0.0044433
inclination: 86.3592°
perigee height: 582 km
apogee height: 645 km
right ascension of ascending node: 138.5517°
argument of perigee: 118.8435°
revolutions per day: 14.84966739
mean anomaly at epoch: 241.7260°
orbit number at epoch: 46023

The dashed part of the orbit path shows where the satellite is in the earth's shadow,  

DLR